Location: Bogis-Bossey
(46.3500°N, 6.1667°E)
Time: 17:31:56
(UTC+00:00)

CARTOSAT-1 - Pass Details

Date: 17 August 2022
Orbit: 615 x 616 km, 97.7° (Epoch: 30 September)

Event Time Altitude Azimuth Distance (km) Brightness Sun altitude
Exits shadow 20:16:17 23° 151° (SSE) 1,303 4.7 -15.0°
Maximum altitude 20:18:51 68° 74° (ENE) 670 3.5 -15.4°
Drops below altitude 10° 20:23:09 10° 352° (N) 1,991 6.9 -16.0°
Sets 20:25:21 0° 350° (N) 2,902 7.8 -16.3°
